Location: Casco Volunteer Fire Department
(44.5576°N, 87.6146°W)
Time: 05:21:50
(UTC+00:00)

CZ-2D R/B - Pass Details

Date: 22 January 2026
Orbit: 389 x 399 km, 97.4° (Epoch: 11 February)

Event Time Altitude Azimuth Distance (km) Brightness Sun altitude
Rises 23:42:20 0° 172° (S) 2,320 6.6 -10.1°
Reaches altitude 10° 23:44:19 10° 175° (S) 1,464 5.7 -10.5°
Maximum altitude 23:47:26 65° 259° (W) 450 3.1 -11.0°
Drops below altitude 10° 23:50:33 10° 342° (NNW) 1,471 5.5 -11.5°
Sets 23:52:33 0° 345° (NNW) 2,333 6.5 -11.9°
